[Iaude] MPEC F42: 2024 FC1 [a=0.89,e=0.19,i=6.1,H=27.6]

mpec at cfa.harvard.edu mpec at cfa.harvard.edu
Tue Mar 19 16:45:56 EDT 2024


M.P.E.C. 2024-F42                                Issued 2024 March 19, 20:44 UT

     The Minor Planet Electronic Circulars contain information on unusual
         minor planets, routine data on comets and natural satellites,
         and occasional editorial announcements.  They are published
    on behalf of Division F of the International Astronomical Union by the
          Minor Planet Center, Smithsonian Astrophysical Observatory,
                          Cambridge, MA 02138, U.S.A.
			  
             Prepared using the Tamkin Foundation Computer Network

                              MPC at CFA.HARVARD.EDU
            URL https://www.minorplanetcenter.net/    ISSN 1523-6714

                                    2024 FC1                                    


Observations:
     K24F01C 1C2024 03 11.26343 08 42 21.55 +32 10 31.2          16.4 GVEF042703
     K24F01C 1C2024 03 11.26794 08 42 18.60 +31 57 54.5          16.3 GVEF042703
     K24F01C 1C2024 03 11.27019 08 42 17.14 +31 51 38.1          16.4 GVEF042703
     K24F01C* C2024 03 17.28256108 49 10.220-10 03 47.34         21.23wXEF042F51
     K24F01C  C2024 03 17.29440508 49 08.561-10 04 26.85         21.28wXEF042F51
     K24F01C  C2024 03 17.30646908 49 06.871-10 05 06.00         20.80wXEF042F51
     K24F01C  C2024 03 17.31816908 49 05.237-10 05 44.02         21.36wXEF042F51
     K24F01C  C2024 03 17.45256308 48 49.462-10 12 24.37         20.96GVEF042F52
     K24F01C  C2024 03 17.45338508 48 49.387-10 12 26.85         20.94GVEF042F52
     K24F01C |C2024 03 18.03754008 49 27.060-10 35 17.00         20.9 GVEF042807
     K24F01C |C2024 03 18.04305008 49 26.430-10 35 31.80         20.9 GVEF042807
     K24F01C |C2024 03 18.04855008 49 25.790-10 35 46.80         21.0 GVEF042807
     K24F01C KC2024 03 19.16461 08 49 50.47 -11 24 00.3          21.7 RVEF042691
     K24F01C KC2024 03 19.17301 08 49 49.66 -11 24 17.8          21.0 RVEF042691
     K24F01C KC2024 03 19.18142 08 49 48.90 -11 24 35.5          21.9 RVEF042691
     K24F01C 1C2024 03 19.22829408 49 59.165-11 25 04.92         21.38GVEF042T12
     K24F01C 1C2024 03 19.23094408 49 58.938-11 25 10.64         21.34GVEF042T12
     K24F01C 1C2024 03 19.23384408 49 58.658-11 25 16.77         20.86GVEF042T12

Observer details:
691 Steward Observatory, Kitt Peak-Spacewatch.  Observer M. T. Read.  0.9-m
    f/3 reflector + CCD.
703 Catalina Sky Survey.  Observer H. Groeller.  Measurers B. Gray, D. Rankin,
    F. C. Shelly.  0.68-m Schmidt + 10K CCD.
807 Cerro Tololo Observatory, La Serena.  Observers T. Linder, R. Holmes.
    0.61-m f/6.8 Ritchey-Chretien + CCD.
F51 Pan-STARRS 1, Haleakala.  Observers J. Herman, T. Lowe, P. Minguez, A.
    Schultz, I. Smith.  Measurers K. Chambers, T. de Boer, J. Fairlamb, H.
    Gao, M. Huber, C.-C. Lin, E. Magnier, Y. Ramanjooloo, R. Wainscoat, R.
    Weryk.  1.8-m Ritchey-Chretien + CCD.
F52 Pan-STARRS 2, Haleakala.  Observers J. Herman, T. Lowe, P. Minguez, A.
    Schultz, I. Smith.  Measurers K. Chambers, T. de Boer, J. Fairlamb, H.
    Gao, M. Huber, C.-C. Lin, E. Magnier, Y. Ramanjooloo, R. Wainscoat, R.
    Weryk.  1.8-m Ritchey-Chretien + CCD.
T12 University of Hawaii 88-inch telescope, Maunakea.  Observer J. Fairlamb.
    Measurers R. Weryk, J. Fairlamb, Y. Ramanjooloo, R. Wainscoat.  2.24-m
    f/10.1 reflector + CCD.

Orbital elements:
2024 FC1                                                 Earth MOID = 0.0020 AU
Epoch 2024 Mar. 31.0 TT = JDT 2460400.5                 Veres                   
M 140.18657              (2000.0)            P               Q                  
n   1.16423899     Peri.   45.14281     +0.80643450     -0.59108847             
a   0.8949002      Node   351.04665     +0.50783983     +0.70674593             
e   0.1913132      Incl.    6.14811     +0.30292260     +0.38874750             
P   0.85           H   27.66          G   0.15           U   6                  
Residuals in seconds of arc
240311 703 (0.3-  3.8-)   240317 F51  0.1+  0.1-    240319 691  0.7+  0.7+
240311 703  0.0   0.6-    240317 F52  0.2+  0.1+    240319 691  0.2+  0.1+
240311 703  0.1-  0.6+    240317 F52  0.0   0.1-    240319 691  0.5+  1.0-
240317 F51  0.0   0.0     240318 807  0.1+  0.1+    240319 T12  0.1-  0.0
240317 F51  0.1-  0.2-    240318 807  0.2-  0.4+    240319 T12  0.1+  0.1-
240317 F51  0.0   0.2+    240318 807  0.6-  0.4+    240319 T12  0.1-  0.1-

Ephemeris:
2024 FC1                 a,e,i = 0.89, 0.19, 6                   q = 0.7237
Date    TT    R. A. (2000) Decl.     Delta      r    Elong.  Phase     V
2024 02 18    20 55 10.3 +12 36 22   0.07052 0.9276    29.7   148.1    29.8
...
2024 03 04    20 49 21.8 +18 00 05   0.02134 0.9754    40.4   138.8    26.0
...
2024 03 12    08 45 59.1 +11 16 57   0.0049770.9974   138.8    41.0    17.7
...
2024 03 18    08 49 21.0 -10 35 39   0.02379 1.0118   133.4    45.6    21.3
2024 03 19    08 49 44.0 -11 14 48   0.02698 1.0140   132.6    46.3    21.6
2024 03 20    08 50 07.8 -11 45 30   0.03018 1.0162   131.8    46.9    21.9
...
2024 03 26    08 52 54.8 -13 23 16   0.04941 1.0284   127.6    50.2    23.1
...
2024 04 03    08 57 56.2 -14 08 35   0.07515 1.0421   122.4    54.1    24.1
...
2024 04 18    09 12 02.6 -14 36 32   0.1232  1.0596   113.7    60.2    25.4

M. P. C. Staff               (C) Copyright 2024 MPC           M.P.E.C. 2024-F42





More information about the Iaude mailing list